• In Deutschland
  • Länderverzeichnis
  • Für 7 Tage
  • Wassertemperatur
  • Satellitenkarten
  • Wetterkarte
  • Widgets
  • user-avatar
    Anmelden

    Stündliche Wetter Suez

    Heute, 17 Januar, Mittwoch

    Zeit Temperatur Niederschläge Wind Luftdruck Luftfeuchtigkeit
    00:00 +14°C° 0 mm 2 m/S 764 mmHg 74%
    01:00 +13°C° 0 mm 2 m/S 764 mmHg 76%
    02:00 +13°C° 0 mm 2 m/S 764 mmHg 79%
    03:00 +12°C° 0 mm 2 m/S 763 mmHg 81%
    04:00 +12°C° 0 mm 2 m/S 763 mmHg 83%
    05:00 +10°C° 0 mm 2 m/S 763 mmHg 85%
    06:00 +12°C° 0 mm 1 m/S 763 mmHg 83%
    07:00 +12°C° 0 mm 1 m/S 763 mmHg 80%
    08:00 +13°C° 0 mm 2 m/S 763 mmHg 75%
    09:00 +15°C° 0 mm 2 m/S 763 mmHg 70%
    10:00 +16°C° 0 mm 3 m/S 763 mmHg 65%
    11:00 +17°C° 0 mm 4 m/S 763 mmHg 59%
    12:00 +18°C° 0 mm 4 m/S 762 mmHg 56%
    13:00 +19°C° 0 mm 4 m/S 762 mmHg 52%
    14:00 +20°C° 0 mm 4 m/S 761 mmHg 48%
    15:00 +19°C° 0 mm 4 m/S 761 mmHg 49%
    16:00 +19°C° 0 mm 3 m/S 761 mmHg 50%
    17:00 +19°C° 0 mm 3 m/S 761 mmHg 51%
    18:00 +18°C° 0 mm 2 m/S 761 mmHg 55%
    19:00 +17°C° 0 mm 2 m/S 761 mmHg 58%
    20:00 +18°C° 0 mm 1 m/S 762 mmHg 61%
    21:00 +16°C° 0 mm 1 m/S 762 mmHg 64%
    22:00 +16°C° 0 mm 1 m/S 762 mmHg 66%
    23:00 +16°C° 0 mm 1 m/S 762 mmHg 68%

    Morgen, 18 Januar, Donnerstag

    Zeit Temperatur Niederschläge Wind Luftdruck Luftfeuchtigkeit
    00:00 +15°C° 0 mm 1 m/S 762 mmHg 71%
    01:00 +14°C° 0 mm 1 m/S 761 mmHg 74%
    02:00 +14°C° 0 mm 1 m/S 761 mmHg 77%
    03:00 +14°C° 0 mm 1 m/S 761 mmHg 76%
    04:00 +13°C° 0 mm 2 m/S 761 mmHg 75%
    05:00 +13°C° 0 mm 2 m/S 761 mmHg 74%
    06:00 +13°C° 0 mm 2 m/S 761 mmHg 70%
    07:00 +14°C° 0 mm 2 m/S 761 mmHg 67%
    08:00 +13°C° 0 mm 3 m/S 761 mmHg 63%
    09:00 +15°C° 0 mm 4 m/S 761 mmHg 54%
    10:00 +16°C° 0 mm 5 m/S 760 mmHg 46%
    11:00 +19°C° 0 mm 6 m/S 760 mmHg 37%
    12:00 +20°C° 0 mm 7 m/S 760 mmHg 35%
    13:00 +20°C° 0 mm 7 m/S 759 mmHg 33%
    14:00 +21°C° 0 mm 8 m/S 758 mmHg 30%
    15:00 +20°C° 0 mm 8 m/S 758 mmHg 31%
    16:00 +20°C° 0 mm 7 m/S 758 mmHg 31%
    17:00 +18°C° 0 mm 7 m/S 758 mmHg 32%
    18:00 +18°C° 0 mm 7 m/S 758 mmHg 35%
    19:00 +17°C° 0 mm 7 m/S 758 mmHg 39%
    20:00 +16°C° 0 mm 7 m/S 758 mmHg 42%
    21:00 +16°C° 0,1 mm 8 m/S 759 mmHg 49%
    22:00 +15°C° 0,1 mm 9 m/S 759 mmHg 55%
    23:00 +14°C° 0,1 mm 10 m/S 759 mmHg 61%

    übermorgen, 19 Januar, Freitag

    Zeit Temperatur Niederschläge Wind Luftdruck Luftfeuchtigkeit
    00:00 +13°C° 0 mm 10 m/S 759 mmHg 59%
    01:00 +13°C° 0 mm 10 m/S 760 mmHg 58%
    02:00 +12°C° 0 mm 10 m/S 760 mmHg 56%
    03:00 +11°C° 0 mm 9 m/S 760 mmHg 55%
    04:00 +11°C° 0 mm 8 m/S 760 mmHg 55%
    05:00 +10°C° 0 mm 7 m/S 760 mmHg 54%
    06:00 +10°C° 0 mm 7 m/S 761 mmHg 55%
    07:00 +10°C° 0 mm 7 m/S 762 mmHg 56%
    08:00 +10°C° 0 mm 7 m/S 762 mmHg 57%
    09:00 +11°C° 0 mm 7 m/S 763 mmHg 54%
    10:00 +12°C° 0 mm 8 m/S 763 mmHg 52%
    11:00 +13°C° 0 mm 8 m/S 763 mmHg 49%
    12:00 +13°C° 0 mm 8 m/S 763 mmHg 47%
    13:00 +15°C° 0 mm 8 m/S 763 mmHg 46%
    14:00 +15°C° 0 mm 7 m/S 762 mmHg 45%
    15:00 +15°C° 0 mm 7 m/S 763 mmHg 47%
    16:00 +14°C° 0 mm 6 m/S 763 mmHg 49%
    17:00 +14°C° 0 mm 6 m/S 764 mmHg 52%
    18:00 +14°C° 0 mm 5 m/S 764 mmHg 55%
    19:00 +13°C° 0 mm 4 m/S 765 mmHg 57%
    20:00 +13°C° 0 mm 3 m/S 765 mmHg 60%
    21:00 +12°C° 0 mm 3 m/S 766 mmHg 63%
    22:00 +12°C° 0 mm 3 m/S 766 mmHg 67%
    23:00 +12°C° 0 mm 2 m/S 766 mmHg 70%

    20 Januar, Samstag

    Zeit Temperatur Niederschläge Wind Luftdruck Luftfeuchtigkeit
    00:00 +12°C° 0 mm 2 m/S 766 mmHg 73%
    01:00 +10°C° 0 mm 2 m/S 766 mmHg 76%
    02:00 +11°C° 0 mm 1 m/S 766 mmHg 80%
    03:00 +10°C° 0 mm 1 m/S 766 mmHg 81%
    04:00 +10°C° 0 mm 1 m/S 766 mmHg 83%
    05:00 +10°C° 0 mm 1 m/S 766 mmHg 85%
    06:00 +10°C° 0 mm 1 m/S 766 mmHg 82%
    07:00 +11°C° 0 mm 1 m/S 767 mmHg 79%
    08:00 +12°C° 0 mm 1 m/S 767 mmHg 76%
    09:00 +13°C° 0 mm 1 m/S 767 mmHg 69%
    10:00 +15°C° 0 mm 1 m/S 767 mmHg 62%
    11:00 +16°C° 0 mm 2 m/S 766 mmHg 55%
    12:00 +17°C° 0 mm 2 m/S 766 mmHg 50%
    13:00 +18°C° 0 mm 2 m/S 765 mmHg 45%
    14:00 +19°C° 0 mm 3 m/S 764 mmHg 40%
    15:00 +19°C° 0 mm 3 m/S 764 mmHg 41%
    16:00 +18°C° 0 mm 3 m/S 764 mmHg 42%
    17:00 +18°C° 0 mm 3 m/S 764 mmHg 44%
    18:00 +17°C° 0 mm 3 m/S 765 mmHg 47%
    19:00 +16°C° 0 mm 3 m/S 765 mmHg 51%
    20:00 +14°C° 0 mm 3 m/S 765 mmHg 54%
    21:00 +14°C° 0 mm 3 m/S 765 mmHg 56%
    22:00 +13°C° 0 mm 3 m/S 765 mmHg 58%
    23:00 +14°C° 0 mm 2 m/S 765 mmHg 60%

    21 Januar, Sonntag

    Zeit Temperatur Niederschläge Wind Luftdruck Luftfeuchtigkeit
    00:00 +14°C° 0 mm 2 m/S 764 mmHg 61%
    01:00 +13°C° 0 mm 2 m/S 764 mmHg 61%
    02:00 +13°C° 0 mm 2 m/S 763 mmHg 62%
    03:00 +13°C° 0 mm 2 m/S 763 mmHg 60%
    04:00 +13°C° 0 mm 2 m/S 763 mmHg 58%
    05:00 +12°C° 0 mm 3 m/S 762 mmHg 57%
    06:00 +13°C° 0 mm 3 m/S 762 mmHg 53%
    07:00 +13°C° 0 mm 3 m/S 762 mmHg 49%
    08:00 +14°C° 0 mm 3 m/S 762 mmHg 45%
    09:00 +17°C° 0 mm 3 m/S 762 mmHg 38%
    10:00 +19°C° 0 mm 3 m/S 762 mmHg 31%
    11:00 +22°C° 0 mm 4 m/S 761 mmHg 24%
    12:00 +22°C° 0 mm 4 m/S 761 mmHg 22%
    13:00 +23°C° 0 mm 4 m/S 760 mmHg 20%
    14:00 +25°C° 0 mm 5 m/S 759 mmHg 18%
    15:00 +23°C° 0 mm 4 m/S 759 mmHg 21%
    16:00 +22°C° 0 mm 4 m/S 758 mmHg 23%
    17:00 +21°C° 0 mm 4 m/S 758 mmHg 26%
    18:00 +20°C° 0 mm 4 m/S 758 mmHg 29%
    19:00 +19°C° 0 mm 4 m/S 758 mmHg 33%
    20:00 +19°C° 0 mm 4 m/S 758 mmHg 37%
    21:00 +19°C° 0 mm 5 m/S 758 mmHg 39%
    22:00 +17°C° 0 mm 5 m/S 758 mmHg 41%
    23:00 +17°C° 0 mm 5 m/S 758 mmHg 42%

    22 Januar, Montag

    Zeit Temperatur Niederschläge Wind Luftdruck Luftfeuchtigkeit
    00:00 +17°C° 0 mm 5 m/S 757 mmHg 45%
    01:00 +16°C° 0 mm 5 m/S 757 mmHg 47%
    02:00 +16°C° 0 mm 5 m/S 757 mmHg 49%
    03:00 +16°C° 0 mm 5 m/S 757 mmHg 49%
    04:00 +16°C° 0 mm 5 m/S 757 mmHg 49%
    05:00 +15°C° 0 mm 5 m/S 757 mmHg 50%
    06:00 +15°C° 0 mm 5 m/S 757 mmHg 48%
    07:00 +15°C° 0 mm 5 m/S 757 mmHg 47%
    08:00 +15°C° 0 mm 4 m/S 757 mmHg 46%
    09:00 +17°C° 0 mm 5 m/S 757 mmHg 38%
    10:00 +19°C° 0 mm 6 m/S 757 mmHg 30%
    11:00 +21°C° 0 mm 7 m/S 757 mmHg 22%
    12:00 +22°C° 0 mm 7 m/S 756 mmHg 21%
    13:00 +22°C° 0 mm 8 m/S 756 mmHg 20%
    14:00 +23°C° 0 mm 9 m/S 755 mmHg 20%
    15:00 +22°C° 0 mm 8 m/S 755 mmHg 23%
    16:00 +21°C° 0 mm 8 m/S 755 mmHg 26%
    17:00 +21°C° 0 mm 7 m/S 755 mmHg 30%
    18:00 +20°C° 0 mm 7 m/S 756 mmHg 36%
    19:00 +18°C° 0 mm 7 m/S 756 mmHg 42%
    20:00 +17°C° 0 mm 6 m/S 757 mmHg 48%
    21:00 +16°C° 0 mm 6 m/S 757 mmHg 50%
    22:00 +16°C° 0 mm 6 m/S 757 mmHg 51%
    23:00 +15°C° 0 mm 6 m/S 757 mmHg 53%
    Mehr zeigen